Find Starlink 4544

NORAD ID: 53394 Int'l Des: 2022-097 Owner: SPXS Country: US Constellation: starlink operational
LEOCIRCULAR

現在のビュー

3D地球を読み込み中...

About Starlink 4544

Starlink 4544 (NORAD 53394) is a starlink constellation satellite (v1.5) launched Aug 10, 2022 by SPXS of US. It operates in LEO, CIRCULAR orbit with a mass of 297.00 kg.

Starlink 4544について

説明を読み込み中...

次回通過

Passes for default location (London). Set your location on the main map for personalized predictions.

高度履歴

Loading altitude history...

軌道要素

1 53394U 22097G 26165.96104105 .00001386 00000-0 10515-3 0 9993
2 53394 53.1598 36.9815 0001330 90.2333 269.8811 15.08836247213506
Epoch: Jun 14, 2026 • Age: 19 hours

現在のステータス

高度 539.7 km
速度 7.59 km/s
衛星直下点 10.70°N, 135.57°W
打ち上げ日 Aug 10, 2022
運用期間 3.8 years
タイプ internet

技術仕様

分類 Payload
質量 297.00 kg
乾燥質量 275.00 kg
総質量 297.00 kg
長さ 0.20 m
直径 2.80 m
スパン 9.00 m
形状 Box + pan
製造者 SPXS
バスタイプ Starlink
フェーズステータス In Orbit
所有者/国 SPXS/US

Most Searched